Statesville, NC

11:50 AM EST on February 06, 2016 (GMT -0500)
Statesville Municipal

Weather History for KSVH - January, 2014

Change the Weather History Date:

Wednesday, January 29, 2014

  Actual Average (KHKY) Record (KHKY)
Temperature  
Mean Temperature 20 °F -  
Max Temperature 28 °F 50 °F - (-1)
Min Temperature 12 °F 28 °F - (-1)
Degree Days  
Heating Degree Days 45    
Moisture  
Dew Point 5 °F    
Average Humidity 57    
Maximum Humidity 87    
Minimum Humidity 24    
Precipitation  
Precipitation 0.00 in - - ()
Sea Level Pressure  
Sea Level Pressure 30.24 in    
Wind  
Wind Speed 2 mph (NE)    
Max Wind Speed 8 mph    
Max Gust Speed -    
Visibility 10 miles    
Events      
Averages and records for this station are not official NWS values.
T = Trace of Precipitation, MM = Missing Value Source: NWS Daily Summary

Daily Weather History Graph

Daily Weather History Graph

Search for Another Location

Airport or City:

Trip Planner

Search our weather history database for the weather conditions in past years. The results will help you decide how hot, cold, wet, or windy it might be!

Date:

Astronomy

Jan. 29, 2014 Rise Set
Actual Time 7:26 AM EST 5:48 PM EST
Civil Twilight 6:59 AM EST 6:15 PM EST
Nautical Twilight 6:28 AM EST 6:45 PM EST
Astronomical Twilight 5:58 AM EST 7:16 PM EST
Moon 6:01 AM EST (1/29) 4:45 PM EST (1/29)
Length of Visible Light 11h 15m
Length of Day
10h 21m
Waning Crescent, 2% of the Moon is Illuminated
Jan 29
Waning Crescent
Jan 30
New
Feb 6
First Quarter
Feb 14
Full
Feb 22
Last Quarter

Hourly Weather History & Observations

Time (EST) Temp. Windchill Dew Point Humidity Pressure Visibility Wind Dir Wind Speed Gust Speed Precip Events Conditions
12:15 AM 18.3 °F 11.5 °F 13.3 °F 81% 30.15 in 10.0 mi NNE 4.6 mph - N/A   Overcast
12:35 AM 18.3 °F - 13.6 °F 82% 30.16 in 10.0 mi Calm Calm - N/A   Overcast
12:55 AM 18.3 °F 11.5 °F 13.1 °F 80% 30.16 in 10.0 mi NNE 4.6 mph - N/A   Overcast
1:15 AM 18.3 °F - 13.5 °F 81% 30.15 in 10.0 mi Calm Calm - N/A   Scattered Clouds
1:35 AM 17.6 °F - 13.5 °F 84% 30.14 in 10.0 mi Calm Calm - N/A   Scattered Clouds
1:55 AM 17.6 °F - 13.1 °F 83% 30.15 in 10.0 mi Calm Calm - N/A   Scattered Clouds
2:15 AM 17.6 °F - 13.1 °F 83% 30.14 in 10.0 mi Calm Calm - N/A   Mostly Cloudy
2:35 AM 17.4 °F - 13.1 °F 83% 30.15 in 10.0 mi Calm Calm - N/A   Scattered Clouds
2:55 AM 17.6 °F - 13.1 °F 83% 30.14 in 10.0 mi Calm Calm - N/A   Clear
3:15 AM 17.4 °F - 13.1 °F 83% 30.14 in 10.0 mi Calm Calm - N/A   Clear
3:35 AM 17.4 °F - 13.1 °F 83% 30.15 in 10.0 mi Calm Calm - N/A   Clear
3:55 AM 17.1 °F - 13.1 °F 84% 30.15 in 10.0 mi Calm Calm - N/A   Clear
4:15 AM 17.2 °F - 12.9 °F 83% 30.16 in 10.0 mi Calm Calm - N/A   Clear
4:35 AM 16.7 °F - 12.9 °F 85% 30.16 in 10.0 mi Calm Calm - N/A   Clear
4:55 AM 16.7 °F - 13.1 °F 86% 30.15 in 10.0 mi Calm Calm - N/A   Clear
5:15 AM 16.7 °F - 13.1 °F 86% 30.16 in 10.0 mi Calm Calm - N/A   Clear
5:35 AM 16.3 °F - 13.1 °F 87% 30.17 in 10.0 mi Calm Calm - N/A   Clear
5:55 AM 16.2 °F - 12.9 °F 87% 30.17 in 10.0 mi Calm Calm - N/A   Clear
6:15 AM 16.0 °F 10.4 °F 12.4 °F 86% 30.18 in 10.0 mi ENE 3.5 mph - N/A   Clear
6:35 AM 16.2 °F - 12.6 °F 86% 30.19 in 10.0 mi Calm Calm - N/A   Clear
6:55 AM 16.0 °F - 12.6 °F 86% 30.19 in 10.0 mi Calm Calm - N/A   Clear
7:15 AM 16.3 °F - 12.4 °F 84% 30.20 in 10.0 mi Calm Calm - N/A   Clear
7:35 AM 15.6 °F 10.0 °F 12.0 °F 86% 30.21 in 10.0 mi NNE 3.5 mph - N/A   Clear
7:55 AM 15.3 °F 9.6 °F 11.8 °F 86% 30.22 in 10.0 mi North 3.5 mph - N/A   Clear
8:15 AM 15.1 °F 9.4 °F 11.1 °F 84% 30.22 in 10.0 mi North 3.5 mph - N/A   Clear
8:35 AM 16.2 °F 9.0 °F 11.3 °F 81% 30.24 in 10.0 mi North 4.6 mph - N/A   Clear
8:55 AM 16.7 °F 9.6 °F 10.0 °F 75% 30.25 in 10.0 mi NNE 4.6 mph - N/A   Clear
9:15 AM 18.3 °F 10.2 °F 9.3 °F 68% 30.26 in 10.0 mi ENE 5.8 mph - N/A   Clear
9:35 AM 18.9 °F - 5.9 °F 57% 30.27 in 10.0 mi Calm Calm - N/A   Clear
9:55 AM 20.3 °F 12.5 °F 0.5 °F 42% 30.28 in 10.0 mi North 5.8 mph - N/A   Clear
10:15 AM 21.0 °F 14.6 °F 2.5 °F 45% 30.28 in 10.0 mi NE 4.6 mph - N/A   Clear
10:35 AM 21.9 °F 13.4 °F 3.4 °F 45% 30.29 in 10.0 mi NE 6.9 mph - N/A   Clear
10:55 AM 22.5 °F 15.1 °F 1.2 °F 40% 30.29 in 10.0 mi ENE 5.8 mph - N/A   Clear
11:15 AM 23.4 °F 14.3 °F -6.9 °F 26% 30.29 in 10.0 mi NNE 8.1 mph - N/A   Clear
11:35 AM 23.9 °F 18.0 °F -5.6 °F 27% 30.29 in 10.0 mi NE 4.6 mph - N/A   Clear
11:55 AM 24.1 °F 19.7 °F -7.4 °F 25% 30.29 in 10.0 mi NNW 3.5 mph - N/A   Clear
12:15 PM 24.8 °F 17.9 °F -4.5 °F 28% 30.29 in 10.0 mi NE 5.8 mph - N/A   Clear
12:35 PM 24.6 °F 18.8 °F -4.4 °F 28% 30.28 in 10.0 mi NE 4.6 mph - N/A   Clear
12:55 PM 25.7 °F - -6.7 °F 24% 30.27 in 10.0 mi Calm Calm - N/A   Clear
1:15 PM 26.1 °F - -4.4 °F 27% 30.26 in 10.0 mi Calm Calm - N/A   Clear
1:35 PM 26.6 °F 22.6 °F -2.0 °F 29% 30.25 in 10.0 mi North 3.5 mph - N/A   Clear
1:55 PM 27.5 °F - -1.8 °F 28% 30.24 in 10.0 mi Calm Calm - N/A   Clear
2:15 PM 27.7 °F 20.4 °F -1.1 °F 29% 30.24 in 10.0 mi NE 6.9 mph - N/A   Clear
2:35 PM 27.5 °F - -2.9 °F 27% 30.24 in 10.0 mi Calm Calm - N/A   Clear
2:55 PM 27.5 °F - -1.8 °F 28% 30.24 in 10.0 mi Calm Calm - N/A   Clear
3:15 PM 27.9 °F - -0.0 °F 30% 30.25 in 10.0 mi Calm Calm - N/A   Clear
3:35 PM 27.9 °F - -1.1 °F 29% 30.25 in 10.0 mi Calm Calm - N/A   Clear
3:55 PM 28.0 °F - 0.3 °F 30% 30.25 in 10.0 mi Calm Calm - N/A   Clear
4:15 PM 28.4 °F 23.3 °F 2.8 °F 34% 30.25 in 10.0 mi East 4.6 mph - N/A   Clear
4:35 PM 28.4 °F 21.2 °F 1.6 °F 32% 30.25 in 10.0 mi ESE 6.9 mph - N/A   Clear
4:55 PM 26.4 °F 20.9 °F 3.0 °F 37% 30.25 in 10.0 mi East 4.6 mph - N/A   Clear
5:15 PM 26.6 °F 22.6 °F 3.6 °F 37% 30.25 in 10.0 mi East 3.5 mph - N/A   Clear
5:35 PM 25.7 °F 21.5 °F 2.8 °F 38% 30.25 in 10.0 mi ESE 3.5 mph - N/A   Clear
5:55 PM 24.3 °F 18.4 °F 1.9 °F 38% 30.26 in 10.0 mi East 4.6 mph - N/A   Clear
6:15 PM 23.7 °F 19.3 °F 1.4 °F 38% 30.26 in 10.0 mi ESE 3.5 mph - N/A   Clear
6:35 PM 23.5 °F 19.1 °F 0.9 °F 37% 30.27 in 10.0 mi ESE 3.5 mph - N/A   Clear
6:55 PM 22.8 °F 18.2 °F 0.5 °F 38% 30.28 in 10.0 mi ESE 3.5 mph - N/A   Clear
7:15 PM 21.2 °F 16.4 °F 0.9 °F 41% 30.28 in 10.0 mi East 3.5 mph - N/A   Clear
7:35 PM 21.9 °F - 0.3 °F 39% 30.28 in 10.0 mi Calm Calm - N/A   Clear
7:55 PM 20.7 °F - 0.7 °F 42% 30.28 in 10.0 mi Calm Calm - N/A   Clear
8:15 PM 20.8 °F - -0.0 °F 40% 30.29 in 10.0 mi Calm Calm - N/A   Clear
8:35 PM 20.5 °F - -0.4 °F 40% 30.29 in 10.0 mi Calm Calm - N/A   Clear
8:55 PM 19.6 °F - 0.7 °F 44% 30.29 in 10.0 mi Calm Calm - N/A   Clear
9:15 PM 18.1 °F 12.9 °F 0.5 °F 46% 30.28 in 10.0 mi NE 3.5 mph - N/A   Clear
9:35 PM 17.6 °F 12.3 °F 3.2 °F 53% 30.29 in 10.0 mi NE 3.5 mph - N/A   Clear
9:55 PM 16.2 °F - 3.0 °F 56% 30.29 in 10.0 mi Calm Calm - N/A   Clear
10:15 PM 16.0 °F 10.4 °F 3.7 °F 59% 30.29 in 10.0 mi North 3.5 mph - N/A   Clear
10:35 PM 13.3 °F - 3.9 °F 66% 30.30 in 10.0 mi Calm Calm - N/A   Clear
10:55 PM 14.2 °F - 3.7 °F 63% 30.31 in 10.0 mi Calm Calm - N/A   Clear
11:15 PM 12.6 °F - 3.2 °F 66% 30.31 in 10.0 mi Calm Calm - N/A   Clear
11:35 PM 12.4 °F - 3.2 °F 67% 30.31 in 10.0 mi Calm Calm - N/A   Clear
11:55 PM 13.1 °F 7.1 °F 5.0 °F 70% 30.30 in 10.0 mi North 3.5 mph - N/A   Clear